Regional Weather Roundup
Issued by NWS

Home | Current Version | Previous Version | Text Only | Print | Product List | Glossary On
Versions: 1 2 3 4 5 6 7 8 9 10 11 12 13 14 15 16 17 18 19 20 21 22 23 24 25 26 27 28 29 30 31 32 33 34 35 36 37 38 39 40 41 42 43 44 45 46 47 48 49 50
007
ASUS43 KLSX 281207
RWRMO

WEATHER SUMMARY FOR MISSOURI
NATIONAL WEATHER SERVICE SPRINGFIELD MO
700 AM CDT FRI JUL 28 2017

NOTE: "FAIR" INDICATES FEW OR NO CLOUDS BELOW 12,000 FEET WITH NO
       SIGNIFICANT WEATHER AND/OR OBSTRUCTIONS TO VISIBILITY.
       CURRENT SKY AND/OR WEATHER CONDITIONS ARE NOT AVAILABLE FOR
       CHILLICOTHE AND FARMINGTON.

MOZ001>031-035>038-043-044-053-054-281300-
...NORTHERN AND WESTERN MISSOURI...

CITY           SKY/WX    TMP DP  RH WIND       PRES   REMARKS
KANSAS CTY INT PTCLDY    71  67  87 NE9       29.99R
6HR MIN TEMP:  70; 6HR MAX TEMP:  75;

LEE`S SUMMIT   CLEAR     73  71  93 NE9       29.98S
6HR MIN TEMP:  72; 6HR MAX TEMP:  75;

ST JOSEPH      PTCLDY    70  67  90 NE6       30.00R
6HR MIN TEMP:  68; 6HR MAX TEMP:  72;

CHILLICOTHE      N/A     68  67  96 CALM      30.01R
6HR MIN TEMP:  67; 6HR MAX TEMP:  75;

KIRKSVILLE     CLEAR     66  63  90 NE5       30.01R
6HR MIN TEMP:  63; 6HR MAX TEMP:  71;


$$
MOZ066>068-077>081-088>096-101>105-281300-
...SOUTHWEST MISSOURI...

CITY           SKY/WX    TMP DP  RH WIND       PRES   REMARKS
SPRINGFIELD    CLOUDY    76  75  97 NE8       29.94R
6HR MIN TEMP:  76; 6HR MAX TEMP:  78; 6HR PCP: TRACE;

JOPLIN         CLOUDY    77  77 100 CALM      29.94R FOG
6HR MIN TEMP:  75; 6HR MAX TEMP:  78; 6HR PCP:  0.27;

BRANSON        CLOUDY    73  73 100 CALM      29.95R

$$
MOZ032>034-039>042-045>050-055>058-069>072-281300-
...CENTRAL MISSOURI...

CITY           SKY/WX    TMP DP  RH WIND       PRES   REMARKS
COLUMBIA       PTCLDY    72  69  90 NE5       29.95S
6HR MIN TEMP:  72; 6HR MAX TEMP:  75;

JEFFERSON CITY PTCLDY    75  73  93 N5        29.94R
6HR MIN TEMP:  74; 6HR MAX TEMP:  77;

ROLLA          CLOUDY    73  72  96 NE9       29.95S FOG
6HR MIN TEMP:  69; 6HR MAX TEMP:  73;

SEDALIA        MOCLDY    72  72 100 N6        29.97R FOG
6HR MIN TEMP:  71; 6HR MAX TEMP:  76;

WHITEMAN AFB   PTCLDY    70  70 100 NE5       29.96R
WARRENSBURG    CLEAR     70  68  94 N3        29.96S
OSAGE BEACH    PTCLDY    72  71  97 CALM      29.95R FOG

$$
MOZ051-052-059>065-281300-
...EAST CENTRAL MISSOURI...

CITY           SKY/WX    TMP DP  RH WIND       PRES   REMARKS
ST LOUIS INTL  PTSUNNY   74  68  81 N7        29.92R
6HR MIN TEMP:  74; 6HR MAX TEMP:  79;

SPIRIT OF STL  PTCLDY    75  70  84 N6        29.91R
6HR MIN TEMP:  73; 6HR MAX TEMP:  77;

ST CHARLES     PTSUNNY   71  65  81 N13       29.91R
6HR MIN TEMP:  71; 6HR MAX TEMP:  78;


$$
MOZ072>076-082>087-097>100-106>115-281300-
...SOUTH CENTRAL AND SOUTHEAST MISSOURI...

CITY           SKY/WX    TMP DP  RH WIND       PRES   REMARKS
CAPE GIRARDEAU CLOUDY    77  73  87 NW9       29.84S
6HR MIN TEMP:  76; 6HR MAX TEMP:  78;

FARMINGTON     CLOUDY    75  73  93 N5        29.90S FOG
6HR MIN TEMP:  74; 6HR MAX TEMP:  75;

POPLAR BLUFF   CLEAR     76  75  97 NW6       29.85S
6HR MIN TEMP:  76; 6HR MAX TEMP:  78; 6HR PCP:  0.06;

WEST PLAINS    CLOUDY    74  72  93 N3        29.94R
6HR MIN TEMP:  73; 6HR MAX TEMP:  76; 6HR PCP:  0.01;


$$



USA.gov is the U.S. government's official web portal to all federal, state and local government web resources and services.